Regional Weather Roundup
Issued by NWS Charleston, SC

Current Version | Previous Version | Graphics & Text | Print | Product List | Glossary On
Versions: 1 2 3 4 5 6 7 8 9 10 11 12 13 14 15 16 17 18 19 20 21 22 23 24 25 26 27 28 29 30 31 32 33 34 35 36 37 38 39 40 41 42 43 44 45 46 47 48 49 50
000 ASUS42 KCHS 230510 RWRCHS REGIONAL WEATHER ROUNDUP NATIONAL WEATHER SERVICE CHARLESTON SC 100 AM EDT TUE SEP 23 2014 NOTE: "FAIR" INDICATES FEW OR NO CLOUDS BELOW 12,000 FEET WITH NO SIGNIFICANT WEATHER AND/OR OBSTRUCTIONS TO VISIBILITY. NOT ALL STATIONS ARE QUALITY CONTROLLED BY THE NATIONAL WEATHER SERVICE. USE DATA WITH CAUTION...ESPECIALLY DEWPOINT OBSERVATIONS. SCZ027-030-031-034>040-042>050-230600- ...SOUTH CAROLINA... CITY SKY/WX TMP DP RH WIND PRES REMARKS N CHARLESTON MOCLDY 69 66 90 NE7 30.10F WATERFRONT PRK NOT AVBL FORT JOHNSON NOT AVBL MOUNT PLEASANT CLOUDY 66 66 100 CALM 30.11S JOHNS ISLAND PTCLDY 68 68 100 N7 30.11S PINOPOLIS N/A 72 66 83 N9 30.05S MONCKS CORNER N/A 68 68 100 CALM 30.11F SUMMERVILLE FAIR 66 66 100 NE3 30.12S BEAUFORT MCAS MOCLDY 69 60 73 MISG 30.07F BEAUFORT ARPT MOCLDY 68 63 83 N6 30.08R HILTON HEAD IS MOCLDY 72 61 68 N9 30.08F GEORGETOWN NOT AVBL WALTERBORO DRIZZLE 68 68 100 NE7 30.09F ORANGEBURG LGT RAIN 65 61 87 E12 30.09F BARNWELL DRIZZLE 64 64 100 E3 30.10F AIKEN CLOUDY 64 64 100 N7 30.15R MANNING MOCLDY 66 N/A N/A CALM 30.13S KINGSTREE NOT AVBL COLUMBIA CLOUDY 66 61 84 W12 30.10F SUMTER LGT RAIN 65 61 89 N1 30.13S FLORENCE LGT RAIN 65 61 87 NE7 30.13F MYRTLE BEACH CLOUDY 68 64 88 NW6 30.11S N MYRTLE BEACH CLOUDY 67 64 90 N6 30.11R $$ GAZ063-065-086>088-099>101-113>116-118-119-134-136>141-150-230600- ...GEORGIA... CITY SKY/WX TMP DP RH WIND PRES REMARKS SAVANNAH ARPT NOT AVBL HUNTER AAF CLOUDY 68 64 84 NE8 30.03F FORT STEWART CLOUDY 67 63 87 NE3 30.04F STATESBORO NOT AVBL SYLVANIA CLOUDY 69 69 97 E10 30.06F CLAXTON FAIR 68 68 100 E6 30.06S THOMSON CLOUDY 64 64 100 CALM 30.16S AUGUSTA-BUSH CLOUDY 66 63 90 CALM 30.10R AUGUSTA-DANIEL CLOUDY 67 62 84 NE8 30.11S SWAINSBORO RAIN 68 68 100 CALM 30.09R VIDALIA TSTM 66 64 94 SE3 30.07S ALMA CLOUDY 69 64 84 VRB3 30.04F WAYCROSS CLOUDY 73 67 82 NE7 30.05R JESUP FAIR 70 68 94 NE6 30.04F BRUNSWICK CLOUDY 70 66 88 NE8 30.06F SAINT SIMONS CLOUDY 70 67 90 NE8 30.05F $$ SCZ027-028-034-036>038-045-046-048>050-GAZ119-141-230600- ...LAKE AND SUPPLEMENTAL COASTAL OBSERVATIONS... STATION/POSITION TIME TEMP WIND PRES WAVE SWELL AIR SEA DIR/SP/G HT/PER HT/PER/DIR (UTC) (F) (DEG/KT/KT) (MB) (FT/S) (FT/S/D) UPR LAKE MARION NOT AVBL WINYAH BAY 0400 68 320/ 5 1019.0S LAKE MURRAY 0400 67 30/ 1/ 10 1019.3F ACE BASIN NERRS 0400 67 330/ 2 1020.0S FORT PULASKI 0500 72 20/ 12/ 17 1018.0F SAPELO ISLAND 0400 71 30/ 12 1018.0S $$ ANZ835-935-AMZ111-154-330-350-352-354-374-450-454-472-230600- ...C-MAN AND BUOY OBSERVATIONS... STATION/POSITION TIME TEMP WIND PRES WAVE SWELL AIR SEA DIR/SP/G HT/PER HT/PER/DIR (UTC) (F) (DEG/KT/KT) (MB) (FT/S) (FT/S/D) FOLLY BEACH CMAN 0400 68 320/ 8/ 12 1019.9R BUOY 41004 0500 78 82 40/ 14/ 16 1017.5F 3/ 4 2/ 7 BUOY 41008 0500 73 82 10/ 21/ 25 1016.9R 5/ 5 2/ 90/ 8 5E ST. MARYS GA 0500 83 N/A 4/ 5 FRYING PAN BUOY NOT AVBL BUOY 41025 0500 74 10/ 17/ 21 1019.4S 4/ 8 2/100/ 8 CAPE LOOKOUT NC 0400 73 20/ 10/ 11 1019.2R BUOY 41002 0447 79 81 130/ 4/ 6 1019.2S 3/ 6 3/320/ 6 BUOY 41010 0500 78 84 320/ 6/ 8 1017.1R 3/ 8 3/ 60/ 8 BUOY 41012 NOT AVBL ST AUGUSTINE FL 0500 76 160/ 2/ 3 1016.7F CAPERS NEARSHORE 0400 70 340/ 14/ 16 N/A FRIPP NEARSHORE NOT AVBL $$

USA.gov is the U.S. government's official web portal to all federal, state and local government web resources and services.